Find Starlink 36760

NORAD ID: 68956 Int'l Des: 2026-099 Owner: SPXS Country: US Constellation: starlink operational
LEOCIRCULAR

Live Position

Loading 3D Globe...

About Starlink 36760

Description loading...

Upcoming Passes

Passes for default location (London). Set your location on the main map for personalized predictions.

Altitude History

Loading altitude history...

Two-Line Element Set

1 68956C 26099F 26125.78729167 -.01508500 00000+0 -26134-2 0 1252
2 68956 53.1617 7.5088 0000389 105.7675 200.5599 16.02314250 13
Epoch: May 5, 2026 • Age: 30 hours

Current Status

Altitude 276.1 km
Velocity 7.75 km/s
Sub-Earth Point 44.38°N, 177.29°W
Launch Date May 1, 2026
Age 4 days
Type internet

Technical Details

Classification Payload
Mass 575.00 kg
Dry Mass 530.00 kg
Total Mass 575.00 kg
Length 0.30 m
Diameter 4.10 m
Span 29.00 m
Shape Box + pan
Manufacturer SPXS
Bus Type Starlink V2MO
Phase Status In Orbit
Owner/State SPXS/US

Most Searched